Date String (YYYY-MM-DD hh:mm:ss) UTC,Instrument flags,Ambient pressure (hPa),Sample flow (lpm),Bypass flow (lpm),Sample temperature (°C),Ambient temperature (°C),ASC tube jacket temperature (°C),LED temperature (°C),Box temperature (°C),Sample RH (%),Mass concentration (μg/m³),Mass concentration (μg/m³)
DateTimeUTC,F1_M11,P_M11,Q1_M11,Q2_M11,T1_M11,T2_M11,T3_M11,T4_M11,T5_M11,U1_M11,X0_M11,X2_M11
2021-08-11 02:00:00,FlowAlarm;OPCInstrumentWarning,0827.2,4.99,0.00,29.1,28.3,00.0,38.1,31.2,15.4,0041.24,0029.17
2021-08-11 02:01:00,FlowAlarm;OPCInstrumentWarning,0827.2,5.00,0.00,29.1,27.0,00.0,38.1,30.8,15.2,0041.21,0029.16
2021-08-11 02:02:00,FlowAlarm;OPCInstrumentWarning,0827.2,5.00,0.00,28.9,25.7,00.0,38.1,30.5,15.3,0040.51,0029.17
2021-08-11 02:03:00,FlowAlarm;OPCInstrumentWarning,0827.2,5.00,0.00,28.9,25.8,00.0,38.0,30.5,15.4,0040.51,0029.23
2021-08-11 02:04:00,FlowAlarm;OPCInstrumentWarning,0827.2,5.00,0.00,28.8,26.2,00.0,38.0,30.6,15.3,0040.48,0029.21
2021-08-11 02:05:00,FlowAlarm;OPCInstrumentWarning,0827.2,5.00,0.00,28.8,26.6,00.0,38.0,30.7,15.5,0039.76,0029.21
2021-08-11 02:06:00,FlowAlarm;OPCInstrumentWarning,0827.2,4.99,0.00,28.8,27.0,00.0,38.0,30.8,15.4,0039.39,0029.29
2021-08-11 02:07:00,FlowAlarm;OPCInstrumentWarning,0827.2,5.00,0.00,28.8,27.4,00.0,38.0,30.9,15.7,0039.39,0029.38
2021-08-11 02:08:00,FlowAlarm;OPCInstrumentWarning,0827.3,5.01,0.00,28.9,27.7,00.0,38.0,31.0,15.4,0039.80,0029.42
2021-08-11 02:09:00,FlowAlarm;OPCInstrumentWarning,0827.2,4.99,0.00,29.0,28.0,00.0,38.0,31.1,15.1,0039.77,0029.41
2021-08-11 02:10:00,FlowAlarm;OPCInstrumentWarning,0827.3,5.00,0.00,29.0,28.2,00.0,38.0,31.1,14.9,0039.91,0029.43
2021-08-11 02:11:00,FlowAlarm;OPCInstrumentWarning,0827.3,5.01,0.00,29.1,28.4,00.0,38.1,31.2,15.2,0039.74,0029.37
2021-08-11 02:12:00,FlowAlarm;OPCInstrumentWarning,0827.3,4.99,0.00,29.2,28.6,00.0,38.1,31.3,14.9,0040.06,0029.34
2021-08-11 02:13:00,FlowAlarm;OPCInstrumentWarning,0827.3,5.00,0.00,29.2,28.4,00.0,38.1,31.3,14.8,0040.76,0029.35
2021-08-11 02:14:00,FlowAlarm;OPCInstrumentWarning,0827.3,5.01,0.00,29.2,26.7,00.0,38.1,30.8,14.8,0041.28,0029.38
2021-08-11 02:15:00,FlowAlarm;OPCInstrumentWarning,0827.3,4.99,0.00,29.0,25.7,00.0,38.1,30.5,15.0,0041.43,0029.37
2021-08-11 02:16:00,FlowAlarm;OPCInstrumentWarning,0827.3,5.00,0.00,28.9,25.9,00.0,38.1,30.6,15.0,0041.46,0029.35
2021-08-11 02:17:00,FlowAlarm;OPCInstrumentWarning,0827.4,5.00,0.00,28.9,26.3,00.0,38.1,30.6,15.1,0041.77,0029.34
2021-08-11 02:18:00,FlowAlarm;OPCInstrumentWarning,0827.4,5.01,0.00,28.8,26.8,00.0,38.0,30.7,15.2,0041.46,0029.29
2021-08-11 02:19:00,FlowAlarm;OPCInstrumentWarning,0827.4,4.98,0.00,28.9,27.2,00.0,38.0,30.8,15.1,0040.88,0029.26
2021-08-11 02:20:00,FlowAlarm;OPCInstrumentWarning,0827.4,5.00,0.00,28.9,27.5,00.0,38.0,30.9,15.0,0041.28,0029.22
2021-08-11 02:21:00,FlowAlarm;OPCInstrumentWarning,0827.4,5.02,0.00,29.0,27.8,00.0,38.0,31.0,15.2,0041.16,0029.17
2021-08-11 02:22:00,FlowAlarm;OPCInstrumentWarning,0827.5,5.00,0.00,29.0,28.1,00.0,38.1,31.1,15.1,0041.59,0029.17
2021-08-11 02:23:00,FlowAlarm;OPCInstrumentWarning,0827.5,5.00,0.00,29.1,28.3,00.0,38.1,31.2,14.9,0041.50,0029.17
2021-08-11 02:24:00,FlowAlarm;OPCInstrumentWarning,0827.5,5.00,0.00,29.2,28.5,00.0,38.1,31.3,14.8,0040.88,0029.09
2021-08-11 02:25:00,FlowAlarm;OPCInstrumentWarning,0827.5,4.99,0.00,29.2,28.0,00.0,38.2,31.2,15.0,0040.66,0029.01
2021-08-11 02:26:00,FlowAlarm;OPCInstrumentWarning,0827.5,5.00,0.00,29.1,26.2,00.0,38.1,30.6,15.0,0040.81,0029.04
2021-08-11 02:27:00,FlowAlarm;OPCInstrumentWarning,0827.5,5.00,0.00,28.9,25.6,00.0,38.1,30.4,15.2,0041.13,0029.15
2021-08-11 02:28:00,FlowAlarm;OPCInstrumentWarning,0827.5,5.00,0.00,28.9,26.0,00.0,38.1,30.5,15.0,0040.92,0029.18
2021-08-11 02:29:00,FlowAlarm;OPCInstrumentWarning,0827.5,5.01,0.00,28.8,26.4,00.0,38.1,30.6,14.9,0041.04,0029.14
2021-08-11 02:30:00,FlowAlarm;OPCInstrumentWarning,0827.5,5.00,0.00,28.8,26.8,00.0,38.0,30.7,15.0,0041.71,0029.21
2021-08-11 02:31:00,FlowAlarm;OPCInstrumentWarning,0827.5,5.00,0.00,28.8,27.2,00.0,38.0,30.8,15.3,0042.22,0029.25
2021-08-11 02:32:00,FlowAlarm;OPCInstrumentWarning,0827.6,5.00,0.00,28.9,27.6,00.0,38.0,30.9,15.1,0042.26,0029.31
2021-08-11 02:33:00,FlowAlarm;OPCInstrumentWarning,0827.6,5.00,0.00,29.0,27.8,00.0,38.1,31.0,15.0,0041.76,0029.30
2021-08-11 02:34:00,FlowAlarm;OPCInstrumentWarning,0827.6,5.00,0.00,29.0,28.1,00.0,38.1,31.1,14.9,0042.04,0029.32
2021-08-11 02:35:00,FlowAlarm;OPCInstrumentWarning,0827.6,5.00,0.00,29.1,28.3,00.0,38.1,31.2,14.9,0042.24,0029.41
2021-08-11 02:36:00,FlowAlarm;OPCInstrumentWarning,0827.6,4.98,0.00,29.1,28.5,00.0,38.1,31.3,14.8,0042.01,0029.43
2021-08-11 02:37:00,FlowAlarm;OPCInstrumentWarning,0827.6,5.02,0.00,29.2,28.6,00.0,38.2,31.3,14.9,0041.84,0029.43
2021-08-11 02:38:00,FlowAlarm;OPCInstrumentWarning,0827.6,4.99,0.00,29.2,27.8,00.0,38.2,31.1,15.0,0041.49,0029.34
2021-08-11 02:39:00,FlowAlarm;OPCInstrumentWarning,0827.6,5.01,0.00,29.1,26.0,00.0,38.2,30.6,15.0,0041.62,0029.35
2021-08-11 02:40:00,FlowAlarm;OPCInstrumentWarning,0827.6,5.00,0.00,29.0,25.8,00.0,38.2,30.5,14.9,0042.68,0029.46
2021-08-11 02:41:00,FlowAlarm;OPCInstrumentWarning,0827.6,5.00,0.00,28.9,26.1,00.0,38.2,30.6,14.8,0041.91,0029.44
2021-08-11 02:42:00,FlowAlarm;OPCInstrumentWarning,0827.6,5.00,0.00,28.9,26.6,00.0,38.1,30.7,14.8,0041.24,0029.46
2021-08-11 02:43:00,FlowAlarm;OPCInstrumentWarning,0827.7,5.00,0.00,28.9,27.0,00.0,38.1,30.8,14.8,0042.35,0029.47
2021-08-11 02:44:00,FlowAlarm;OPCInstrumentWarning,0827.8,5.00,0.00,28.9,27.4,00.0,38.1,30.9,14.9,0044.04,0029.47
2021-08-11 02:45:00,FlowAlarm;OPCInstrumentWarning,0827.7,4.99,0.00,29.0,27.7,00.0,38.1,31.0,14.8,0043.51,0029.46
2021-08-11 02:46:00,FlowAlarm;OPCInstrumentWarning,0827.7,4.99,0.00,29.0,28.0,00.0,38.1,31.1,14.8,0043.44,0029.44
2021-08-11 02:47:00,FlowAlarm;OPCInstrumentWarning,0827.7,5.01,0.00,29.1,28.2,00.0,38.1,31.2,14.8,0043.59,0029.47
2021-08-11 02:48:00,FlowAlarm;OPCInstrumentWarning,0827.8,5.00,0.00,29.2,28.4,00.0,38.1,31.2,14.6,0043.67,0029.54
2021-08-11 02:49:00,FlowAlarm;OPCInstrumentWarning,0827.7,4.99,0.00,29.2,28.6,00.0,38.2,31.3,14.5,0043.89,0029.65
2021-08-11 02:50:00,FlowAlarm;OPCInstrumentWarning,0827.7,5.00,0.00,29.3,28.1,00.0,38.2,31.2,14.5,0043.23,0029.63
2021-08-11 02:51:00,FlowAlarm;OPCInstrumentWarning,0827.7,5.00,0.00,29.2,26.3,00.0,38.2,30.7,14.4,0042.24,0029.63
2021-08-11 02:52:00,FlowAlarm;OPCInstrumentWarning,0827.8,5.00,0.00,29.0,25.6,00.0,38.2,30.5,14.6,0042.48,0029.69
2021-08-11 02:53:00,FlowAlarm;OPCInstrumentWarning,0827.8,5.00,0.00,28.9,26.0,00.0,38.2,30.6,14.6,0042.46,0029.75
2021-08-11 02:54:00,FlowAlarm;OPCInstrumentWarning,0827.8,4.99,0.00,28.9,26.4,00.0,38.1,30.7,14.7,0041.47,0029.78
2021-08-11 02:55:00,FlowAlarm;OPCInstrumentWarning,0827.8,5.01,0.00,28.9,26.8,00.0,38.1,30.8,14.8,0040.15,0029.85
2021-08-11 02:56:00,FlowAlarm;OPCInstrumentWarning,0827.9,5.01,0.00,28.9,27.2,00.0,38.1,30.9,14.9,0040.39,0029.88
2021-08-11 02:57:00,FlowAlarm;OPCInstrumentWarning,0827.9,4.98,0.00,28.9,27.6,00.0,38.1,31.0,14.7,0040.49,0029.93
2021-08-11 02:58:00,FlowAlarm;OPCInstrumentWarning,0827.9,5.01,0.00,29.0,27.8,00.0,38.1,31.0,14.7,0040.87,0029.96
2021-08-11 02:59:00,FlowAlarm;OPCInstrumentWarning,0827.9,5.00,0.00,29.1,28.1,00.0,38.1,31.1,14.6,0041.21,0029.92
